Location: Apollinopolis Magna
(24.9792°N, 32.8772°E)
Time: 03:24:53
(UTC+00:00)

CENTAUR R/B - Pass Details

Date: 02 March 2021
Orbit: 742 x 1446 km, 63.4° (Epoch: 31 March)

Event Time Altitude Azimuth Distance (km) Brightness Sun altitude
Rises 17:42:04 0° 187° (S) 3,198 5.2 -25.9°
Reaches altitude 10° 17:44:28 10° 179° (S) 2,317 4.4 -26.4°
Enters shadow 17:44:33 10° 178° (S) 2,291 4.4 -26.4°
